,,Stat1,,Stat2,,Stat3,,Stat4,,Wind1,,Wind1,
time,status,PR1M_SUM,status,RH1M_AVG,status,SR1M_AVG,status,TA1M_AVG,status,W1dAve1m,status,W1sAve1m,
2000-02-23, 00:01:00,VALID,0,VALID,96.7437,VALID,0.0169808,VALID,18.4616,VALID,89,VALID,0.572985,
2000-02-23, 00:02:00,VALID,0,VALID,96.6127,VALID,0,VALID,18.4687,VALID,84,VALID,0.994721,
2000-02-23, 00:03:00,VALID,0,VALID,96.736,VALID,0,VALID,18.4521,VALID,94,VALID,0.89337,
2000-02-23, 00:04:00,VALID,0,VALID,96.8073,VALID,0,VALID,18.4489,VALID,91,VALID,1.10814,
2000-02-23, 00:05:00,VALID,0,VALID,96.9001,VALID,0.0339617,VALID,18.462,VALID,73,VALID,0.246299,
2000-02-23, 00:06:00,VALID,0,VALID,96.7373,VALID,0,VALID,18.436,VALID,61,VALID,0.0877404,
2000-02-23, 00:07:00,VALID,0,VALID,96.7742,VALID,0,VALID,18.4295,VALID,103,VALID,0.523242,
2000-02-23, 00:08:00,VALID,0,VALID,96.8861,VALID,0,VALID,18.4293,VALID,92,VALID,0.862331,
2000-02-23, 00:09:00,VALID,0,VALID,96.923,VALID,0,VALID,18.433,VALID,92,VALID,0.839732,
2000-02-23, 00:10:00,VALID,0,VALID,96.9955,VALID,0,VALID,18.4364,VALID,95,VALID,1.10397,
2000-02-23, 00:11:00,VALID,0,VALID,97.1023,VALID,0,VALID,18.436,VALID,101,VALID,0.5625,
2000-02-23, 00:12:00,VALID,0,VALID,97.1658,VALID,0,VALID,18.4519,VALID,93,VALID,0.322599,
2000-02-23, 00:13:00,VALID,0,VALID,97.1735,VALID,0,VALID,18.4685,VALID,97,VALID,0.343149,
2000-02-23, 00:14:00,VALID,0,VALID,97.0311,VALID,0,VALID,18.4752,VALID,74,VALID,0.514358,
2000-02-23, 00:15:00,VALID,0,VALID,96.7805,VALID,0.0339617,VALID,18.433,VALID,67,VALID,0.687695,
2000-02-23, 00:16:00,VALID,0,VALID,96.7933,VALID,0,VALID,18.3935,VALID,34,VALID,0.735008,
2000-02-23, 00:17:00,VALID,0,VALID,96.8238,VALID,-0.0169808,VALID,18.3746,VALID,39,VALID,0.260135,
2000-02-23, 00:18:01,VALID,0,VALID,96.9522,VALID,0.0169808,VALID,18.3845,VALID,43,VALID,0.000976563,
2000-02-23, 00:19:00,VALID,0,VALID,96.9929,VALID,0.0339617,VALID,18.3744,VALID,52,VALID,0.0088141,
2000-02-23, 00:20:00,VALID,0,VALID,97.0285,VALID,0.0169808,VALID,18.3841,VALID,76,VALID,0.113381,
2000-02-23, 00:21:00,VALID,0,VALID,96.9128,VALID,0,VALID,18.3709,VALID,76,VALID,0.617634,
2000-02-23, 00:22:00,VALID,0,VALID,96.9853,VALID,0.0169808,VALID,18.3878,VALID,76,VALID,0.492188,
2000-02-23, 00:23:00,VALID,0,VALID,97.101,VALID,0.0169808,VALID,18.4005,VALID,92,VALID,0.454359,
2000-02-23, 00:24:00,VALID,0,VALID,97.2116,VALID,0.0169808,VALID,18.4231,VALID,95,VALID,0.673314,
2000-02-23, 00:25:00,VALID,0,VALID,97.4024,VALID,0,VALID,18.4459,VALID,95,VALID,0.526867,
2000-02-23, 00:26:00,VALID,0,VALID,97.4723,VALID,0.0339617,VALID,18.472,VALID,94,VALID,0.719336,
2000-02-23, 00:27:00,VALID,0,VALID,97.4202,VALID,0.0169808,VALID,18.462,VALID,99,VALID,0.502604,
2000-02-23, 00:28:00,VALID,0,VALID,97.4965,VALID,0,VALID,18.4683,VALID,96,VALID,0.701057,
2000-02-23, 00:29:00,VALID,0,VALID,97.5295,VALID,0,VALID,18.4913,VALID,94,VALID,0.964844,
2000-02-23, 00:30:01,VALID,0,VALID,97.3566,VALID,0,VALID,18.4643,VALID,80,VALID,0.397518,
2000-02-23, 00:31:00,VALID,0,VALID,97.3057,VALID,0,VALID,18.4683,VALID,107,VALID,0.453125,
2000-02-23, 00:32:00,VALID,0,VALID,97.2688,VALID,0,VALID,18.465,VALID,95,VALID,0.806538,
2000-02-23, 00:33:00,VALID,0,VALID,97.2142,VALID,0,VALID,18.4752,VALID,81,VALID,0.923142,
2000-02-23, 00:34:00,VALID,0,VALID,97.0857,VALID,0,VALID,18.4657,VALID,84,VALID,0.945713,
2000-02-23, 00:35:00,VALID,0,VALID,97.0921,VALID,-0.0169808,VALID,18.4556,VALID,97,VALID,0.965461,
2000-02-23, 00:36:00,VALID,0,VALID,97.0768,VALID,0,VALID,18.4394,VALID,92,VALID,1.17701,
2000-02-23, 00:37:00,VALID,0,VALID,97.0883,VALID,0.0169808,VALID,18.4459,VALID,82,VALID,0.766627,
2000-02-23, 00:38:00,VALID,0,VALID,97.129,VALID,0,VALID,18.4431,VALID,90,VALID,0.741016,
2000-02-23, 00:39:00,VALID,0,VALID,97.0883,VALID,0.0169808,VALID,18.4099,VALID,86,VALID,0.80551,
2000-02-23, 00:40:00,VALID,0,VALID,97.1951,VALID,0,VALID,18.4136,VALID,90,VALID,0.516859,
2000-02-23, 00:41:01,VALID,0,VALID,97.2587,VALID,0,VALID,18.4138,VALID,100,VALID,0.483964,
2000-02-23, 00:42:00,VALID,0,VALID,97.307,VALID,0,VALID,18.4328,VALID,102,VALID,0.284856,
2000-02-23, 00:43:00,VALID,0,VALID,97.1926,VALID,0,VALID,18.4364,VALID,328,VALID,0.394531,
2000-02-23, 00:44:00,VALID,0,VALID,97.0094,VALID,0,VALID,18.4104,VALID,14,VALID,0.704814,
2000-02-23, 00:45:00,VALID,0,VALID,97.1302,VALID,0,VALID,18.4265,VALID,115,VALID,0.820759,
2000-02-23, 00:46:00,VALID,0,VALID,97.2167,VALID,0,VALID,18.4461,VALID,96,VALID,0.983373,
2000-02-23, 00:47:00,VALID,0,VALID,97.3083,VALID,0,VALID,18.469,VALID,86,VALID,0.520354,
2000-02-23, 00:48:00,VALID,0,VALID,97.335,VALID,0,VALID,18.4623,VALID,60,VALID,0.356326,
2000-02-23, 00:49:00,VALID,0,VALID,97.4418,VALID,0,VALID,18.4754,VALID,135,VALID,0.334736,
2000-02-23, 00:50:00,VALID,0,VALID,97.4075,VALID,0,VALID,18.4816,VALID,114,VALID,0.362753,
2000-02-23, 00:51:00,VALID,0,VALID,97.2981,VALID,0,VALID,18.4685,VALID,167,VALID,0.4375,
2000-02-23, 00:52:01,VALID,0,VALID,97.2193,VALID,0,VALID,18.4556,VALID,103,VALID,1.01563,
2000-02-23, 00:53:00,VALID,0,VALID,97.2892,VALID,-0.0169808,VALID,18.472,VALID,100,VALID,0.791596,
2000-02-23, 00:54:00,VALID,0,VALID,97.3426,VALID,0,VALID,18.4747,VALID,52,VALID,0.700195,
2000-02-23, 00:55:00,VALID,0,VALID,97.2549,VALID,0,VALID,18.4685,VALID,339,VALID,0.131811,
2000-02-23, 00:56:00,VALID,0,VALID,97.0412,VALID,-0.0339617,VALID,18.4392,VALID,87,VALID,0.608974,
2000-02-23, 00:57:00,VALID,0,VALID,96.942,VALID,-0.0169808,VALID,18.4367,VALID,97,VALID,0.531696,
2000-02-23, 00:58:00,VALID,0,VALID,97.0425,VALID,0,VALID,18.4427,VALID,100,VALID,0.370703,
2000-02-23, 00:59:00,VALID,0,VALID,97.1506,VALID,0.0169808,VALID,18.462,VALID,86,VALID,0.423931,
2000-02-23, 01:00:00,VALID,0,VALID,97.1137,VALID,-0.0169808,VALID,18.4655,VALID,94,VALID,0.500206,
2000-02-23, 01:01:00,VALID,0,VALID,97.0921,VALID,0,VALID,18.4618,VALID,99,VALID,0.675495,
2000-02-23, 01:02:00,VALID,0,VALID,97.1976,VALID,0,VALID,18.4782,VALID,97,VALID,0.894336,
2000-02-23, 01:03:01,VALID,0,VALID,97.2612,VALID,0.0169808,VALID,18.4784,VALID,124,VALID,0.414263,
2000-02-23, 01:04:00,VALID,0,VALID,97.2854,VALID,0,VALID,18.4946,VALID,99,VALID,0.691866,
2000-02-23, 01:05:00,VALID,0,VALID,97.2307,VALID,0.0169808,VALID,18.4685,VALID,94,VALID,0.971217,
2000-02-23, 01:06:00,VALID,0,VALID,97.1557,VALID,0,VALID,18.4265,VALID,80,VALID,1.03516,
2000-02-23, 01:07:00,VALID,0,VALID,97.1798,VALID,0.0169808,VALID,18.3945,VALID,82,VALID,1.15045,
2000-02-23, 01:08:00,VALID,0,VALID,97.3579,VALID,0.0169808,VALID,18.3649,VALID,102,VALID,1.29873,
2000-02-23, 01:09:00,VALID,0,VALID,97.5244,VALID,0,VALID,18.3622,VALID,89,VALID,1.33995,
2000-02-23, 01:10:00,VALID,0,VALID,97.6109,VALID,0,VALID,18.3423,VALID,89,VALID,0.945313,
2000-02-23, 01:11:00,VALID,0,VALID,97.6758,VALID,0.0169808,VALID,18.3331,VALID,81,VALID,0.71176,
2000-02-23, 01:12:00,VALID,0,VALID,97.7991,VALID,0,VALID,18.3359,VALID,95,VALID,0.565995,
2000-02-23, 01:13:00,VALID,0,VALID,97.8182,VALID,0,VALID,18.3137,VALID,94,VALID,0.404647,
2000-02-23, 01:14:01,VALID,0,VALID,97.8945,VALID,0,VALID,18.3301,VALID,95,VALID,0.974805,
2000-02-23, 01:15:00,VALID,0,VALID,97.8538,VALID,0,VALID,18.3043,VALID,85,VALID,0.653166,
2000-02-23, 01:16:00,VALID,0,VALID,97.9606,VALID,0.0169808,VALID,18.3036,VALID,89,VALID,0.87685,
2000-02-23, 01:17:00,VALID,0,VALID,98.0458,VALID,0.0169808,VALID,18.3167,VALID,92,VALID,0.601563,
2000-02-23, 01:18:00,VALID,0,VALID,98.1145,VALID,0.0169808,VALID,18.3202,VALID,98,VALID,0.305088,
2000-02-23, 01:19:00,VALID,0,VALID,98.1742,VALID,0,VALID,18.3301,VALID,77,VALID,0.324414,
2000-02-23, 01:20:00,VALID,0,VALID,98.0916,VALID,0,VALID,18.3045,VALID,100,VALID,0.581715,
2000-02-23, 01:21:00,VALID,0,VALID,98.1526,VALID,0.0169808,VALID,18.2909,VALID,93,VALID,0.838393,
2000-02-23, 01:22:00,VALID,0,VALID,98.2315,VALID,0,VALID,18.3075,VALID,91,VALID,0.895232,
2000-02-23, 01:23:00,VALID,0,VALID,98.3459,VALID,0.0169808,VALID,18.3264,VALID,103,VALID,0.597039,
2000-02-23, 01:24:00,VALID,0,VALID,98.3332,VALID,0,VALID,18.3306,VALID,101,VALID,0.921303,
2000-02-23, 01:25:01,VALID,0,VALID,98.3688,VALID,0.0169808,VALID,18.3204,VALID,89,VALID,1.10216,
2000-02-23, 01:26:00,VALID,0,VALID,98.4451,VALID,0,VALID,18.3368,VALID,101,VALID,0.994088,
2000-02-23, 01:27:00,VALID,0,VALID,98.4692,VALID,0,VALID,18.3299,VALID,94,VALID,0.992578,
2000-02-23, 01:28:00,VALID,0,VALID,98.4947,VALID,0.0339617,VALID,18.3368,VALID,96,VALID,1.02407,
2000-02-23, 01:29:00,VALID,0,VALID,98.557,VALID,0,VALID,18.353,VALID,106,VALID,0.743243,
2000-02-23, 01:30:00,VALID,0,VALID,98.6155,VALID,0,VALID,18.3562,VALID,106,VALID,0.698242,
2000-02-23, 01:31:00,VALID,0,VALID,98.6867,VALID,0,VALID,18.3818,VALID,98,VALID,0.766026,
2000-02-23, 01:32:00,VALID,0,VALID,98.6689,VALID,0,VALID,18.3758,VALID,103,VALID,0.858774,
2000-02-23, 01:33:00,VALID,0,VALID,98.6587,VALID,0,VALID,18.3656,VALID,98,VALID,1.21763,
2000-02-23, 01:34:00,VALID,0,VALID,98.6485,VALID,0,VALID,18.3527,VALID,90,VALID,1.3959,
2000-02-23, 01:35:00,VALID,0,VALID,98.6053,VALID,0,VALID,18.3041,VALID,62,VALID,0.748561,
2000-02-23, 01:36:01,VALID,0,VALID,98.604,VALID,0,VALID,18.2978,VALID,100,VALID,0.983553,
2000-02-23, 01:37:00,VALID,0,VALID,98.6155,VALID,0,VALID,18.2621,VALID,92,VALID,0.787538,
2000-02-23, 01:38:00,VALID,0,VALID,98.6053,VALID,0,VALID,18.2429,VALID,72,VALID,1.14805,
2000-02-23, 01:39:00,VALID,0,VALID,98.6524,VALID,0,VALID,18.2339,VALID,69,VALID,0.785657,
2000-02-23, 01:40:00,VALID,0,VALID,98.6574,VALID,0,VALID,18.2014,VALID,35,VALID,0.440947,
2000-02-23, 01:41:00,VALID,0,VALID,98.6969,VALID,0.0169808,VALID,18.1846,VALID,104,VALID,0.587993,
2000-02-23, 01:42:00,VALID,0,VALID,98.7477,VALID,0,VALID,18.2044,VALID,89,VALID,0.625919,
2000-02-23, 01:43:00,VALID,0,VALID,98.824,VALID,0,VALID,18.2173,VALID,107,VALID,0.615625,
2000-02-23, 01:44:00,VALID,0,VALID,98.8927,VALID,0,VALID,18.2432,VALID,101,VALID,0.619038,
2000-02-23, 01:45:00,VALID,0,VALID,98.8876,VALID,0.0169808,VALID,18.2367,VALID,97,VALID,0.670186,
2000-02-23, 01:46:00,VALID,0,VALID,98.9283,VALID,0,VALID,18.2662,VALID,115,VALID,0.579127,
2000-02-23, 01:47:01,VALID,0,VALID,98.9804,VALID,-0.0169808,VALID,18.2791,VALID,106,VALID,0.576275,
2000-02-23, 01:48:00,VALID,0,VALID,98.9893,VALID,-0.0169808,VALID,18.2918,VALID,103,VALID,0.586143,
2000-02-23, 01:49:00,VALID,0,VALID,99.0237,VALID,0,VALID,18.3047,VALID,80,VALID,0.561899,
2000-02-23, 01:50:00,VALID,0,VALID,98.9537,VALID,0,VALID,18.2692,VALID,78,VALID,0.962305,
2000-02-23, 01:51:00,VALID,0,VALID,98.8863,VALID,0,VALID,18.2139,VALID,93,VALID,1.01748,
2000-02-23, 01:52:00,VALID,0,VALID,98.9156,VALID,0,VALID,18.1975,VALID,84,VALID,1.14104,
2000-02-23, 01:53:00,VALID,0,VALID,98.9525,VALID,0.0169808,VALID,18.2044,VALID,105,VALID,0.585526,
2000-02-23, 01:54:00,VALID,0,VALID,98.9792,VALID,0.0169808,VALID,18.201,VALID,73,VALID,0.909455,
2000-02-23, 01:55:00,VALID,0,VALID,98.9436,VALID,0.0339617,VALID,18.1786,VALID,82,VALID,0.477148,
2000-02-23, 01:56:00,VALID,0,VALID,98.9792,VALID,0,VALID,18.182,VALID,102,VALID,0.754012,
2000-02-23, 01:57:01,VALID,0,VALID,99.0084,VALID,0.0169808,VALID,18.195,VALID,111,VALID,0.528348,
2000-02-23, 01:58:01,VALID,0,VALID,99.0504,VALID,0,VALID,18.2079,VALID,120,VALID,0.732171,
2000-02-23, 01:59:00,VALID,0,VALID,98.969,VALID,0,VALID,18.1652,VALID,98,VALID,0.398026,
2000-02-23, 02:00:00,VALID,0,VALID,98.9855,VALID,0,VALID,18.153,VALID,93,VALID,0.0160061,
2000-02-23, 02:01:00,VALID,0,VALID,99.0287,VALID,0,VALID,18.1627,VALID,99,VALID,0.0588942,
2000-02-23, 02:02:00,VALID,0,VALID,99.0504,VALID,0,VALID,18.1724,VALID,124,VALID,0.502534,
2000-02-23, 02:03:00,VALID,0,VALID,99.0529,VALID,0,VALID,18.1758,VALID,125,VALID,0.210938,
2000-02-23, 02:04:00,VALID,0,VALID,99.0949,VALID,0,VALID,18.195,VALID,115,VALID,0.000422297,
2000-02-23, 02:05:00,VALID,0,VALID,99.1089,VALID,0,VALID,18.2044,VALID,94,VALID,0.783995,
2000-02-23, 02:06:00,VALID,0,VALID,99.0758,VALID,0,VALID,18.2076,VALID,81,VALID,0.972266,
2000-02-23, 02:07:00,VALID,0,VALID,99.0326,VALID,-0.0169808,VALID,18.1887,VALID,85,VALID,0.78145,
2000-02-23, 02:08:00,VALID,0,VALID,99.016,VALID,0,VALID,18.1756,VALID,82,VALID,0.766426,
2000-02-23, 02:09:00,VALID,0,VALID,99.0148,VALID,-0.0169808,VALID,18.1624,VALID,83,VALID,0.963839,
2000-02-23, 02:10:00,VALID,0,VALID,98.9893,VALID,0,VALID,18.15,VALID,69,VALID,0.638477,
2000-02-23, 02:11:00,VALID,0,VALID,99.0211,VALID,0,VALID,18.15,VALID,86,VALID,1.17002,
2000-02-23, 02:12:00,VALID,0,VALID,99.0313,VALID,-0.0169808,VALID,18.117,VALID,74,VALID,1.10012,
2000-02-23, 02:13:00,VALID,0,VALID,99.0555,VALID,-0.0339617,VALID,18.1237,VALID,78,VALID,1.02534,
2000-02-23, 02:14:00,VALID,0,VALID,99.0669,VALID,0,VALID,18.1172,VALID,79,VALID,1.06621,
2000-02-23, 02:15:00,VALID,0,VALID,99.0949,VALID,0.0169808,VALID,18.1237,VALID,67,VALID,0.964744,
2000-02-23, 02:16:00,VALID,0,VALID,99.1165,VALID,0,VALID,18.1172,VALID,88,VALID,0.772059,
2000-02-23, 02:17:00,VALID,0,VALID,99.161,VALID,0,VALID,18.1431,VALID,79,VALID,0.667969,
2000-02-23, 02:18:01,VALID,0,VALID,99.1635,VALID,-0.0169808,VALID,18.1371,VALID,73,VALID,0.542279,
2000-02-23, 02:19:00,VALID,0,VALID,99.1597,VALID,-0.101885,VALID,18.1283,VALID,54,VALID,0.722768,
2000-02-23, 02:20:00,VALID,0,VALID,99.1356,VALID,-0.0679233,VALID,18.1059,VALID,89,VALID,0.53125,
2000-02-23, 02:21:00,VALID,0,VALID,99.1737,VALID,-0.118866,VALID,18.1223,VALID,83,VALID,0.658995,
2000-02-23, 02:22:00,VALID,0,VALID,99.1826,VALID,-0.118866,VALID,18.1191,VALID,78,VALID,0.899239,
2000-02-23, 02:23:00,VALID,0,VALID,99.208,VALID,-0.118866,VALID,18.1251,VALID,91,VALID,0.932155,
2000-02-23, 02:24:00,VALID,0,VALID,99.2551,VALID,-0.101885,VALID,18.1544,VALID,88,VALID,0.91139,
2000-02-23, 02:25:00,VALID,0,VALID,99.2233,VALID,-0.118866,VALID,18.1278,VALID,72,VALID,1.36278,
2000-02-23, 02:26:00,VALID,0,VALID,99.2398,VALID,-0.101885,VALID,18.132,VALID,90,VALID,0.716406,
2000-02-23, 02:27:00,VALID,0,VALID,99.2704,VALID,-0.101885,VALID,18.1481,VALID,99,VALID,0.622533,
2000-02-23, 02:28:00,VALID,0,VALID,99.2449,VALID,-0.101885,VALID,18.1281,VALID,68,VALID,1.23725,
2000-02-23, 02:29:00,VALID,0,VALID,99.2704,VALID,-0.101885,VALID,18.1444,VALID,80,VALID,0.457648,
2000-02-23, 02:30:01,VALID,0,VALID,99.2475,VALID,-0.101885,VALID,18.135,VALID,90,VALID,1.23858,
2000-02-23, 02:31:00,VALID,0,VALID,99.2602,VALID,-0.101885,VALID,18.1481,VALID,88,VALID,0.971289,
2000-02-23, 02:32:00,VALID,0,VALID,99.2869,VALID,-0.101885,VALID,18.1638,VALID,80,VALID,1.08974,
2000-02-23, 02:33:00,VALID,0,VALID,99.2398,VALID,-0.101885,VALID,18.1345,VALID,61,VALID,0.989955,
2000-02-23, 02:34:00,VALID,0,VALID,99.2182,VALID,0,VALID,18.1272,VALID,84,VALID,1.28786,
2000-02-23, 02:35:00,VALID,0,VALID,99.2284,VALID,0,VALID,18.1336,VALID,79,VALID,0.962788,
2000-02-23, 02:36:00,VALID,0,VALID,99.1826,VALID,0,VALID,18.1142,VALID,89,VALID,1.29421,
2000-02-23, 02:37:00,VALID,0,VALID,99.203,VALID,0,VALID,18.1269,VALID,95,VALID,1.16086,
2000-02-23, 02:38:00,VALID,0,VALID,99.2487,VALID,0,VALID,18.1562,VALID,95,VALID,1.44489,
2000-02-23, 02:39:00,VALID,0,VALID,99.2233,VALID,0,VALID,18.1493,VALID,92,VALID,0.725,
2000-02-23, 02:40:00,VALID,0,VALID,99.1775,VALID,0.0169808,VALID,18.1433,VALID,88,VALID,0.733507,
2000-02-23, 02:41:00,VALID,0,VALID,99.1686,VALID,0.0169808,VALID,18.1435,VALID,92,VALID,0.608953,
2000-02-23, 02:42:00,VALID,0,VALID,99.1203,VALID,0,VALID,18.1306,VALID,73,VALID,1.2002,
2000-02-23, 02:43:00,VALID,0,VALID,99.0796,VALID,0,VALID,18.1207,VALID,85,VALID,1.21114,
2000-02-23, 02:44:00,VALID,0,VALID,99.0758,VALID,0,VALID,18.1138,VALID,93,VALID,1.21695,
2000-02-23, 02:45:00,VALID,0,VALID,99.0898,VALID,0,VALID,18.1468,VALID,93,VALID,0.692187,
2000-02-23, 02:46:00,VALID,0,VALID,99.0733,VALID,0.0169808,VALID,18.1458,VALID,98,VALID,0.954297,
2000-02-23, 02:47:00,VALID,0,VALID,99.0822,VALID,0,VALID,18.1691,VALID,100,VALID,0.803248,
2000-02-23, 02:48:00,VALID,0,VALID,99.0656,VALID,0,VALID,18.1657,VALID,103,VALID,0.842928,
2000-02-23, 02:49:00,VALID,0,VALID,99.0491,VALID,0,VALID,18.1758,VALID,96,VALID,1.02611,
2000-02-23, 02:50:00,VALID,0,VALID,99.0109,VALID,0,VALID,18.1857,VALID,91,VALID,1.28145,
2000-02-23, 02:51:00,VALID,0,VALID,98.9601,VALID,0,VALID,18.179,VALID,95,VALID,1.10697,
2000-02-23, 02:52:00,VALID,0,VALID,98.9054,VALID,0,VALID,18.1597,VALID,82,VALID,1.23438,
2000-02-23, 02:53:00,VALID,0,VALID,98.8965,VALID,0,VALID,18.1661,VALID,93,VALID,0.658512,
2000-02-23, 02:54:00,VALID,0,VALID,98.8914,VALID,-0.0169808,VALID,18.1627,VALID,97,VALID,0.972886,
2000-02-23, 02:55:00,VALID,0,VALID,98.9092,VALID,0,VALID,18.182,VALID,97,VALID,0.582143,
2000-02-23, 02:56:00,VALID,0,VALID,98.8762,VALID,0,VALID,18.1853,VALID,98,VALID,1.12438,
2000-02-23, 02:57:00,VALID,0,VALID,98.8685,VALID,0,VALID,18.1885,VALID,76,VALID,0.740076,
2000-02-23, 02:58:00,VALID,0,VALID,98.8088,VALID,0.0169808,VALID,18.1917,VALID,41,VALID,0.525441,
2000-02-23, 02:59:00,VALID,0,VALID,98.7108,VALID,0,VALID,18.1659,VALID,75,VALID,0.701686,
2000-02-23, 03:00:00,VALID,0,VALID,98.7121,VALID,0,VALID,18.1853,VALID,96,VALID,0.832237,
2000-02-23, 03:01:00,VALID,0,VALID,98.7032,VALID,-0.0339617,VALID,18.1922,VALID,87,VALID,0.713542,
2000-02-23, 03:02:01,VALID,0,VALID,98.7007,VALID,-0.0169808,VALID,18.1857,VALID,95,VALID,1.2166,
2000-02-23, 03:03:00,VALID,0,VALID,98.7452,VALID,0.0169808,VALID,18.2079,VALID,99,VALID,1.38446,
2000-02-23, 03:04:00,VALID,0,VALID,98.7782,VALID,0.0169808,VALID,18.2143,VALID,97,VALID,1.35691,
2000-02-23, 03:05:00,VALID,0,VALID,98.8037,VALID,0.0339617,VALID,18.204,VALID,91,VALID,1.09375,
2000-02-23, 03:06:00,VALID,0,VALID,98.7579,VALID,0,VALID,18.2014,VALID,100,VALID,1.45633,
2000-02-23, 03:07:00,VALID,0,VALID,98.735,VALID,-0.0169808,VALID,18.1913,VALID,99,VALID,1.61074,
2000-02-23, 03:08:00,VALID,0,VALID,98.6638,VALID,0.0169808,VALID,18.1917,VALID,75,VALID,1.12711,
2000-02-23, 03:09:00,VALID,0,VALID,98.6511,VALID,0.0169808,VALID,18.1917,VALID,86,VALID,0.752679,
2000-02-23, 03:10:00,VALID,0,VALID,98.6104,VALID,0.0169808,VALID,18.2079,VALID,99,VALID,0.700321,
2000-02-23, 03:11:00,VALID,0,VALID,98.571,VALID,0.0169808,VALID,18.2111,VALID,86,VALID,0.747944,
2000-02-23, 03:12:00,VALID,0,VALID,98.4336,VALID,0,VALID,18.1848,VALID,107,VALID,0.514101,
2000-02-23, 03:13:01,VALID,0,VALID,98.3446,VALID,0.0679233,VALID,18.1913,VALID,86,VALID,0.39403,
2000-02-23, 03:14:00,VALID,0,VALID,98.1895,VALID,0,VALID,18.1756,VALID,68,VALID,0,
2000-02-23, 03:15:00,VALID,0,VALID,98.1323,VALID,0,VALID,18.1627,VALID,87,VALID,0,
2000-02-23, 03:16:00,VALID,0,VALID,98.1475,VALID,0.0169808,VALID,18.1724,VALID,92,VALID,0,
2000-02-23, 03:17:00,VALID,0,VALID,98.2035,VALID,-0.0169808,VALID,18.1883,VALID,92,VALID,0,
2000-02-23, 03:18:00,VALID,0,VALID,98.2378,VALID,0,VALID,18.221,VALID,94,VALID,0,
2000-02-23, 03:19:00,VALID,0,VALID,98.2175,VALID,0.0339617,VALID,18.2171,VALID,98,VALID,0,
2000-02-23, 03:20:00,VALID,0,VALID,98.145,VALID,0,VALID,18.2169,VALID,357,VALID,0,
2000-02-23, 03:21:00,VALID,0,VALID,98.1081,VALID,0.0169808,VALID,18.2201,VALID,318,VALID,0,
2000-02-23, 03:22:00,VALID,0,VALID,98.0483,VALID,0.0169808,VALID,18.2303,VALID,299,VALID,0,
2000-02-23, 03:23:00,VALID,0,VALID,98.028,VALID,0.0849042,VALID,18.233,VALID,44,VALID,0,
2000-02-23, 03:24:00,VALID,0,VALID,98.028,VALID,0,VALID,18.2365,VALID,94,VALID,0,
2000-02-23, 03:25:00,VALID,0,VALID,98.0827,VALID,0.0169808,VALID,18.2595,VALID,82,VALID,0,
2000-02-23, 03:26:00,VALID,0,VALID,98.0458,VALID,0.0169808,VALID,18.2462,VALID,140,VALID,0.273438,
2000-02-23, 03:27:00,VALID,0,VALID,98.0127,VALID,0.0509425,VALID,18.2427,VALID,99,VALID,0.88101,
2000-02-23, 03:28:00,VALID,0,VALID,97.9962,VALID,0.0169808,VALID,18.2535,VALID,93,VALID,0.544118,
2000-02-23, 03:29:00,VALID,0,VALID,97.8449,VALID,0.0169808,VALID,18.2141,VALID,33,VALID,0.926398,
2000-02-23, 03:30:00,VALID,0,VALID,97.7432,VALID,0,VALID,18.2017,VALID,20,VALID,0.295726,
2000-02-23, 03:31:00,VALID,0,VALID,97.7902,VALID,0.0169808,VALID,18.2042,VALID,63,VALID,0.00803571,
2000-02-23, 03:32:00,VALID,0,VALID,97.7432,VALID,0.0509425,VALID,18.195,VALID,59,VALID,0.0178865,
2000-02-23, 03:33:00,VALID,0,VALID,97.6834,VALID,0.0169808,VALID,18.1682,VALID,3,VALID,0.365287,
2000-02-23, 03:34:00,VALID,0,VALID,97.691,VALID,-0.0339617,VALID,18.1763,VALID,56,VALID,0.122196,
2000-02-23, 03:35:01,VALID,0,VALID,97.7927,VALID,-0.0849042,VALID,18.173,VALID,108,VALID,0,
2000-02-23, 03:36:01,VALID,0,VALID,97.8563,VALID,-0.0679233,VALID,18.1929,VALID,104,VALID,0,
2000-02-23, 03:37:00,VALID,0,VALID,97.8385,VALID,-0.101885,VALID,18.1963,VALID,104,VALID,0,
2000-02-23, 03:38:00,VALID,0,VALID,97.8271,VALID,-0.101885,VALID,18.1864,VALID,104,VALID,0,
2000-02-23, 03:39:00,VALID,0,VALID,97.7788,VALID,-0.0849042,VALID,18.2,VALID,104,VALID,0,
2000-02-23, 03:40:00,VALID,0,VALID,97.7864,VALID,-0.0679233,VALID,18.1929,VALID,104,VALID,0,
2000-02-23, 03:41:00,VALID,0,VALID,97.7902,VALID,-0.101885,VALID,18.2159,VALID,106,VALID,0,
2000-02-23, 03:42:00,VALID,0,VALID,97.8093,VALID,-0.101885,VALID,18.2123,VALID,106,VALID,0,
2000-02-23, 03:43:00,VALID,0,VALID,97.8436,VALID,-0.101885,VALID,18.2157,VALID,106,VALID,0,
2000-02-23, 03:44:00,VALID,0,VALID,97.8945,VALID,-0.101885,VALID,18.2189,VALID,106,VALID,0,
2000-02-23, 03:45:00,VALID,0,VALID,97.8958,VALID,-0.101885,VALID,18.2155,VALID,105,VALID,0,
2000-02-23, 03:46:01,VALID,0,VALID,97.9212,VALID,-0.0679233,VALID,18.2185,VALID,105,VALID,0,
2000-02-23, 03:47:00,VALID,0,VALID,97.9275,VALID,-0.0849042,VALID,18.2155,VALID,115,VALID,0,
2000-02-23, 03:48:00,VALID,0,VALID,97.8284,VALID,-0.0679233,VALID,18.2088,VALID,113,VALID,0.23609,
2000-02-23, 03:49:00,VALID,0,VALID,97.7927,VALID,-0.0169808,VALID,18.2079,VALID,122,VALID,0.440705,
2000-02-23, 03:50:00,VALID,0,VALID,97.7635,VALID,0.0339617,VALID,18.1943,VALID,154,VALID,0.364654,
2000-02-23, 03:51:00,VALID,0,VALID,97.7482,VALID,0,VALID,18.1915,VALID,154,VALID,0.25332,
2000-02-23, 03:52:00,VALID,0,VALID,97.7444,VALID,0.0169808,VALID,18.1585,VALID,157,VALID,0.0958615,
2000-02-23, 03:53:00,VALID,0,VALID,97.7482,VALID,0,VALID,18.1627,VALID,182,VALID,0.257813,
2000-02-23, 03:54:00,VALID,0,VALID,97.7508,VALID,0.0169808,VALID,18.1431,VALID,159,VALID,0.558008,
2000-02-23, 03:55:00,VALID,0,VALID,97.8207,VALID,0,VALID,18.15,VALID,152,VALID,0.214143,
2000-02-23, 03:56:00,VALID,0,VALID,97.8932,VALID,0,VALID,18.1498,VALID,169,VALID,0.0941506,
2000-02-23, 03:57:01,VALID,0,VALID,97.9326,VALID,0,VALID,18.1534,VALID,177,VALID,0.120089,
2000-02-23, 03:58:00,VALID,0,VALID,97.9186,VALID,0,VALID,18.1463,VALID,205,VALID,0.0839844,
2000-02-23, 03:59:00,VALID,0,VALID,97.8805,VALID,-0.0169808,VALID,18.1403,VALID,214,VALID,0,
2000-02-23, 04:00:00,VALID,0,VALID,97.9288,VALID,0,VALID,18.1366,VALID,216,VALID,0,
2000-02-23, 04:01:00,VALID,0,VALID,97.9021,VALID,-0.0169808,VALID,18.1433,VALID,224,VALID,0.174352,
2000-02-23, 04:02:00,VALID,0,VALID,97.8996,VALID,0,VALID,18.1396,VALID,225,VALID,0.009375,
2000-02-23, 04:03:00,VALID,0,VALID,97.9123,VALID,0.0339617,VALID,18.1332,VALID,218,VALID,0,
2000-02-23, 04:04:00,VALID,0,VALID,97.9008,VALID,-0.0169808,VALID,18.1502,VALID,218,VALID,0,
2000-02-23, 04:05:00,VALID,0,VALID,97.9364,VALID,-0.0169808,VALID,18.1433,VALID,219,VALID,0,
2000-02-23, 04:06:00,VALID,0,VALID,97.9606,VALID,-0.0339617,VALID,18.1435,VALID,230,VALID,0,
2000-02-23, 04:07:00,VALID,0,VALID,97.9644,VALID,-0.0509425,VALID,18.1567,VALID,230,VALID,0,
2000-02-23, 04:08:00,VALID,0,VALID,98.0127,VALID,-0.0679233,VALID,18.1502,VALID,223,VALID,0,
2000-02-23, 04:09:01,VALID,0,VALID,98.0509,VALID,-0.0169808,VALID,18.1627,VALID,221,VALID,0,
2000-02-23, 04:10:00,VALID,0,VALID,98.0394,VALID,-0.0169808,VALID,18.1659,VALID,221,VALID,0,
2000-02-23, 04:11:00,VALID,0,VALID,98.0458,VALID,-0.0509425,VALID,18.1724,VALID,214,VALID,0,
2000-02-23, 04:12:00,VALID,0,VALID,98.1005,VALID,-0.0849042,VALID,18.176,VALID,190,VALID,0,
2000-02-23, 04:13:00,VALID,0,VALID,98.0623,VALID,-0.0509425,VALID,18.176,VALID,177,VALID,0,
2000-02-23, 04:14:00,VALID,0,VALID,98.0827,VALID,0,VALID,18.1694,VALID,181,VALID,0,